Skip Page Navigation
NASA JPL Caltech
NASA Logo - Jet Propulsion Laboratory + View the NASA Portal
+ Center for Near-Earth Object Studies
JPL Home Earth Solar System Stars & Galaxies Technology
JPL Solar System Dynamics
BODIES ORBITS EPHEMERIDES TOOLS PHYSICAL DATA DISCOVERY FAQ SITE MAP
JPL Small-Body Database Browser
Search: [ help ]  
123525 (2000 XB10)
Classification: Main-belt Asteroid          SPK-ID: 2123525
Ephemeris | Orbit Diagram | Orbital Elements | Mission Design | Physical Parameters | Discovery Circumstances | Close-Approach Data ]

[ show orbit diagram ]
Orbital Elements at Epoch 2459000.5 (2020-May-31.0) TDB
Reference: JPL 18 (heliocentric ecliptic J2000)
 Element Value Uncertainty (1-sigma)   Units 
e .1610673801125496 4.9074e-08  
a 3.107045096504922 3.2279e-08 au
q 2.60660148291933 1.5215e-07 au
i 25.10001493331115 5.6077e-06 deg
node 83.95580765491989 1.4563e-05 deg
peri 145.8649747475278 2.4161e-05 deg
M 89.05923438538393 2.1149e-05 deg
tp 2458505.624198009521
(2019-Jan-22.12419801)
0.00011543 TDB
period 2000.41343209448
5.48
3.1174e-05
8.535e-08
d
yr
n .1799627988015815 2.8045e-09 deg/d
Q 3.607488710090514 3.7479e-08 au
  Orbit Determination Parameters
   # obs. used (total)      662  
   data-arc span      10278 days (28.14 yr)  
   first obs. used      1992-07-28  
   last obs. used      2020-09-17  
   planetary ephem.      DE431  
   SB-pert. ephem.      SB431-N16  
   condition code      0  
   norm. resid. RMS      .53133  
   source      ORB  
   producer      Otto Matic  
   solution date      2020-Nov-12 17:34:34  

Additional Information
 Earth MOID = 1.62151 au 
 Jupiter MOID = 1.54893 au 
 T_jup = 3.056 
[ hide covariance matrix ]
Orbital Elements at Epoch 2457062.5 (2015-Feb-09.0) TDB
Reference: JPL 18 (heliocentric ecliptic J2000)
 Element Value Uncertainty (1-sigma)   Units 
e .159519711527134 4.9239e-08  
q 2.613864729511215 1.5247e-07 au
tp 2456505.522368351342
(2013-Aug-01.02236835)
0.00011377 TDB
node 83.98924318873001 1.4566e-05 deg
peri 146.390269067351 2.4276e-05 deg
i 25.08828946745083 5.6044e-06 deg
  Orbit Determination Parameters
   # obs. used (total)      662  
   data-arc span      10278 days (28.14 yr)  
   first obs. used      1992-07-28  
   last obs. used      2020-09-17  
   planetary ephem.      DE431  
   SB-pert. ephem.      SB431-N16  
   condition code      0  
   norm. resid. RMS      .53133  
   source      ORB  
   producer      Otto Matic  
   solution date      2020-Nov-12 17:34:34  

Additional Information
 Jupiter MOID = 1.54893 au 
 T_jup = 3.056 
Orbit Covariance (6×6)
  e q tp node peri i
e 2.424516329361604E-15 -7.390125720623571E-15 -1.076483981527285E-12 -3.015469284574103E-15 -1.589057085336179E-13 3.871471875102649E-16
q -7.390125720623571E-15 2.324858225151238E-14 3.200017257991213E-12 8.682785174690639E-15 5.141659883684756E-13 2.106840299864538E-15
tp -1.076483981527285E-12 3.200017257991213E-12 1.294430092337631E-8 3.534573885204157E-13 2.260841583618842E-9 7.118333178179772E-12
node -3.015469284574103E-15 8.682785174690639E-15 3.534573885204157E-13 2.121688418897619E-10 -1.920419318727818E-10 4.770391026927861E-12
peri -1.589057085336179E-13 5.141659883684756E-13 2.260841583618842E-9 -1.920419318727818E-10 5.893217146959078E-10 -2.719010275946957E-12
i 3.871471875102649E-16 2.106840299864538E-15 7.118333178179772E-12 4.770391026927861E-12 -2.719010275946957E-12 3.140977343406102E-11

Ephemeris | Orbit Diagram | Orbital Elements | Mission Design | Physical Parameters | Discovery Circumstances | Close-Approach Data ]

Physical Parameter Table
Parameter Symbol Value Units Sigma Reference Notes
absolute magnitude H 14.3   n/a MPO449713  

123525 (2000 XB10)          Discovered 2000-Dec-01 by LINEAR at Socorro
Reference: 20060314/Numbers.arcLast Updated: 2006-03-23

[ show close-approach data ]
Alternate Designations
 2000 XB10 = 1992 PA 
Ephemeris | Orbit Diagram | Orbital Elements | Mission Design | Physical Parameters | Discovery Circumstances | Close-Approach Data ]
ABOUT SSD CREDITS/AWARDS PRIVACY/COPYRIGHT GLOSSARY LINKS
FirstGov 2020-Dec-03 17:02 UT
(server date/time)  
NASA Home Page
Site Manager:   Ryan S. Park
Webmaster  Alan B. Chamberlin